Starlink 32485

operational
NORAD ID: 62143 Int'l Des: 2024-224 Owner: SPXS Country: US Constellation: starlink
LEOCIRCULAR

Über Starlink 32485

Beschreibung wird geladen...

Live-Position

3D-Globus wird geladen...

Nächste Überflüge

Höhenverlauf

Altitude vs Time

uPlot chart will show altitude changes over time

Zweizeiliger Elementsatz

1 62143U 24224E 25257.47549620 .00012826 00000-0 47468-3 0 9999
2 62143 43.0027 76.4423 0001091 272.8287 87.2440 15.27587413 45060
Epoch: 14. Sept. 2025 • Age: 38 hours

Aktueller Status

Höhe 482.0 km
Geschwindigkeit 7.63 km/s
Subsatellitenpunkt 8.85°N, 64.92°E
Startdatum 30. Nov. 2024
Alter 0.7 years
Typ internet

Technische Details

Klassifizierung Payload
Masse 730.00 kg
Trockenmasse 700.00 kg
Gesamtmasse 730.00 kg
Länge 0.30 m
Durchmesser 4.10 m
Spannweite 29.00 m
Form Box + pan
Hersteller SPXS
Bus-Typ Starlink V2M
Phasenstatus In Orbit
Besitzer/Staat SPXS/US

Große Konstellationen

Loading constellations...